Flag for Germany

Past Weather in Grevenbroich, North Rhine-Westphalia, Germany — Yesterday and Last 2 Weeks

Now
59 °F

Light rain. Overcast.


Feels Like: 58 °F
Forecast: 69 / 60 °F
Wind: 6 mph from Southwest

Location: Monchengladbach Airport

Current Time: Jul 8, 2020 at 2:25:58 pm

Latest Report: Jul 8, 2020 at 1:50 pm


Visibility: N/A

Pressure: 30.01 "Hg

Humidity: 94%

Dew Point: 57 °F

Location of GrevenbroichLocation

Past Weather in Grevenbroich — Graph

°F

Grevenbroich Temperature Yesterday

Maximum temperature yesterday: 68 °F (at 3:20 pm)
Minimum temperature yesterday: 45 °F (at 4:20 am)
Average temperature yesterday: 60 °F

High & Low Weather Summary for the Past Weeks

 TemperatureHumidityPressure
High88 °F (Jun 26, 4:20 pm)100% (Jul 1, 7:50 am)30.27 "Hg (Jul 1, 7:50 am)
Low45 °F (Jul 7, 4:20 am)30% (Jun 24, 6:50 pm)29.71 "Hg (Jul 1, 3:50 pm)
Average67 °F68%29.96 "Hg
* Reported Jun 23 12:20 pm — Jul 8 12:50 pm, Grevenbroich. Weather by CustomWeather, © 2020

Note: Actual official high and low records may vary slightly from our data, if they occured in-between our weather recording intervals... More about our weather records

Grevenbroich Weather History for the Previous 24 Hours

Scroll right to see more
 ConditionsComfort  
Time TempWeatherWind HumidityBarometerVisibility
12:50 pm
Wed, Jul 8
59 °FLight rain. Overcast.8 mph88%30.01 "HgN/A
12:20 pm57 °FLight rain. Partly sunny.7 mph94%30.01 "HgN/A
11:50 am57 °FLight rain. Partly sunny.7 mph94%30.01 "HgN/A
11:20 am57 °FLight rain. Mostly cloudy.7 mph94%30.01 "HgN/A
10:50 am57 °FLight rain. Partly sunny.7 mph88%30.01 "HgN/A
10:20 am55 °FLight rain. Broken clouds.7 mph94%30.01 "HgN/A
9:50 am55 °FLight rain. More clouds than sun.7 mph88%30.01 "HgN/A
9:20 am55 °FPartly sunny.7 mph88%30.01 "HgN/A
8:50 am55 °FPartly sunny.5 mph94%30.01 "HgN/A
8:20 am55 °FLight rain. Partly sunny.5 mph94%30.01 "HgN/A
7:50 am55 °FLight rain. Partly sunny.6 mph88%29.98 "HgN/A
7:20 am55 °FCloudy.7 mph94%30.01 "HgN/A
6:50 am55 °FMore clouds than sun.5 mph94%30.01 "HgN/A
6:20 am55 °FMore clouds than sun.No wind94%29.98 "HgN/A
5:50 am55 °FMostly cloudy.No wind94%29.98 "HgN/A
5:20 am55 °FMostly cloudy.1 mph94%29.98 "HgN/A
4:50 am55 °FOvercast.No wind94%29.98 "HgN/A
4:20 am55 °FOvercast.2 mph94%29.98 "HgN/A
3:50 am55 °FMostly cloudy.2 mph94%30.01 "HgN/A
3:20 am55 °FMostly cloudy.2 mph94%30.01 "HgN/A
2:50 am55 °FMostly cloudy.2 mph94%30.01 "HgN/A
2:20 am55 °FMostly cloudy.2 mph94%30.04 "HgN/A
1:50 am55 °FOvercast.1 mph94%30.04 "HgN/A
1:20 am57 °FOvercast.6 mph82%30.04 "HgN/A
12:50 am61 °FMostly cloudy.8 mph68%30.04 "HgN/A
12:20 am57 °FOvercast.No wind88%30.04 "HgN/A
11:50 pm
Tue, Jul 7
57 °FOvercast.2 mph82%30.04 "HgN/A
11:20 pm59 °FMostly cloudy.2 mph82%30.04 "HgN/A
10:50 pm59 °FOvercast.2 mph82%30.04 "HgN/A
10:20 pm61 °FOvercast.2 mph72%30.04 "HgN/A
9:50 pm61 °FCloudy.No wind72%30.04 "HgN/A
9:20 pm63 °FMostly cloudy.2 mph64%30.04 "HgN/A
8:50 pm64 °FBroken clouds.5 mph52%30.04 "HgN/A
8:20 pm66 °FClear.7 mph49%30.07 "Hg10 mi
7:50 pm66 °FClear.9 mph49%30.07 "Hg10 mi
7:20 pm66 °FPassing clouds.7 mph52%30.07 "HgN/A
6:50 pm66 °FPassing clouds.8 mph52%30.07 "HgN/A
6:20 pm68 °FPassing clouds.10 mph49%30.07 "HgN/A
5:50 pm68 °FClear.13 mph49%30.07 "Hg10 mi
5:20 pm68 °FPassing clouds.10 mph49%30.07 "HgN/A
4:50 pm68 °FPassing clouds.12 mph49%30.09 "HgN/A
4:20 pm66 °FPassing clouds.8 mph56%30.09 "HgN/A
3:50 pm66 °FPassing clouds.8 mph52%30.09 "HgN/A
3:20 pm68 °FPassing clouds.9 mph56%30.09 "HgN/A
2:50 pm66 °FPassing clouds.7 mph56%30.09 "HgN/A
2:20 pm66 °FPassing clouds.7 mph52%30.09 "HgN/A
Weather by CustomWeather, © 2020

See weather overview